Tracking 35334 objects as of 12-Sep-2026
HD Live streaming from Space Station
objects crossing your sky now

NOAA 16 DEB


NOAA 16 DEB is no longer on orbit


NORAD ID: 42395
Int'l Code: 2000-055SP
Launch date: September 21, 2000
Source: United States (US)
Launch site: AIR FORCE WESTERN TEST RANGE (AFWTR)
Decay date: 2025-05-09

Note: This is SATELLITE DEBRIS
Your satellite tracking list
Your tracking list is empty




NASA's NSSDC Master Catalog

Two Line Element Set (TLE):
1 42395U 00055SP  25117.47031552  .00841345  00000-0  23437-1 0  9991
2 42395  98.8538 301.9485 0017063 265.7917  94.1371 15.34156009477153
Source of the keplerian elements: AFSPC